Theta_e
325 324 324 325 325 325 325 325 325 325 325 327 329 329 329 330 329 323 319 327 325 329 327 324 325 324 325 323 320 319 310 306 307 306 305 308 309 311 316 316 320 323 320 324 332
324 324 324 324 324 325 325 325 324 325 325 327 328 328 328 329 324 318 328 330 330 328 321 319 317 320 317 319 321 315 308 307 313 313 309 313 307 309 312 314 316 319 324 328 328
322 323 323 323 323 324 325 324 324 324 325 326 327 327 327 328 316 314 330 332 331 327 321 320 319 318 313 317 317 314 307 311 313 315 316 314 307 308 310 310 315 315 321 323 324
320 321 322 323 323 323 325 324 324 323 324 325 326 326 325 323 299 318 330 332 332 326 320 317 316 312 310 309 315 310 314 313 315 317 315 314 315 308 308 312 312 314 322 324 323
318 318 320 321 322 322 324 324 324 323 323 324 325 325 320 310 309 324 327 331 329 323 318 316 313 312 308 310 312 310 311 314 316 315 314 314 314 314 313 316 316 314 321 323 325
316 317 318 319 321 322 322 323 323 323 322 323 324 324 314 302 318 324 327 328 325 321 318 318 315 315 310 309 309 310 312 312 314 315 314 311 313 311 316 312 310 314 317 323 324
314 315 316 318 319 321 321 321 322 322 321 322 323 318 309 306 321 321 324 325 325 322 317 319 319 314 313 308 313 310 305 309 310 312 311 312 308 306 316 314 314 313 316 320 324
313 313 315 317 318 319 320 320 321 321 321 321 321 314 301 315 322 320 321 323 325 324 321 320 320 316 312 311 309 305 306 299 306 309 310 310 301 310 315 313 314 316 316 318 321
312 312 313 315 316 318 319 319 320 321 321 319 312 307 297 317 311 316 322 316 321 321 321 318 316 310 310 305 301 303 296 298 301 309 308 307 302 309 315 312 313 316 316 316 319
311 312 312 313 315 315 316 319 319 320 318 313 311 300 302 299 308 313 320 319 315 315 312 310 308 303 303 301 291 295 296 298 298 304 306 304 304 307 311 312 313 315 316 316 317
310 310 310 312 314 314 312 313 306 303 306 298 299 297 301 305 313 311 316 314 314 309 302 306 299 295 299 302 302 299 298 297 300 305 304 303 303 305 309 310 309 311 312 314 315
309 309 310 311 313 314 310 302 306 305 296 302 301 301 306 306 301 306 316 306 304 298 304 300 294 301 303 302 300 299 297 297 301 304 303 302 302 306 308 309 311 311 312 314 314
308 308 309 310 312 310 306 304 311 307 295 297 300 300 303 303 299 302 310 307 301 297 299 296 299 303 301 299 297 297 295 296 295 300 302 300 298 301 305 308 309 309 311 312 315
307 308 308 309 304 305 302 309 311 308 285 288 293 298 303 304 296 307 311 305 300 297 299 298 302 300 299 297 299 293 301 299 297 294 291 300 289 298 301 302 305 307 309 309 312
306 307 308 309 302 299 303 310 308 299 275 288 293 305 302 298 300 301 311 304 295 296 298 295 298 297 295 297 301 297 302 298 298 295 294 293 290 295 301 300 302 306 309 310 312
305 306 307 305 303 304 307 310 302 281 274 284 292 292 293 296 297 301 302 306 303 298 299 297 302 300 299 301 301 302 298 298 297 294 285 293 291 293 297 300 303 306 308 311 313
305 306 305 304 297 306 306 301 282 276 286 283 286 291 291 289 293 295 294 293 291 287 288 294 294 300 302 297 300 299 294 285 284 284 284 295 291 293 301 303 304 305 308 311 312
304 305 304 303 304 305 300 290 277 283 283 289 290 290 287 289 290 292 291 289 295 293 289 286 284 293 299 298 295 294 292 287 283 283 287 292 287 294 303 305 306 306 307 309 309
304 300 299 301 304 303 291 279 281 285 287 287 288 284 285 288 289 290 290 289 292 295 288 287 286 297 298 299 299 293 289 296 287 282 284 289 294 300 302 302 304 305 306 308 310
297 295 295 301 303 296 285 281 284 290 290 290 283 286 283 285 287 288 288 292 292 296 298 291 285 293 295 299 298 295 298 287 287 282 281 287 290 293 298 300 304 304 304 306 307
295 288 296 301 299 288 279 282 285 290 292 288 286 285 287 285 288 287 287 291 295 295 294 293 290 288 294 292 291 291 290 290 289 287 284 283 289 299 300 301 302 304 306 307 308
291 282 297 300 284 284 282 285 288 288 292 289 291 289 288 288 286 286 287 289 296 296 290 294 290 285 288 294 297 296 292 292 285 284 286 285 289 297 300 302 301 301 302 303 304
286 287 297 296 279 281 285 285 287 287 289 290 288 290 291 288 284 288 289 294 295 294 292 293 287 281 282 287 292 291 293 294 293 291 285 283 287 296 297 299 299 297 298 298 298
285 282 287 289 289 284 283 283 283 289 289 290 289 291 289 288 290 287 288 292 295 295 296 296 288 285 281 285 289 286 289 293 291 285 287 287 290 295 298 299 301 300 298 298 299
287 285 288 280 282 285 285 286 283 284 289 291 288 289 288 285 286 286 289 290 293 295 295 293 284 287 287 288 288 287 287 288 288 290 286 289 290 295 297 300 302 305 305 298 299
286 285 289 284 286 284 285 285 285 287 289 287 287 289 290 286 288 286 289 290 288 292 292 290 284 285 282 288 287 285 288 288 288 289 289 290 289 296 298 299 302 303 304 304 304
291 293 290 285 284 283 283 286 287 288 289 291 291 289 288 290 293 294 295 295 293 290 287 286 285 282 280 284 284 280 285 287 288 290 289 286 293 297 297 298 300 301 303 302 303
Wind_Speed
23 23 21 20 18 18 18 16 14 13 11 8 7 7 7 5 4 4 9 4 1 4 2 4 3 4 2 2 2 1 6 8 9 6 1 2 4 2 0 3 4 6 2 3 15
23 23 23 22 20 19 20 18 16 14 13 10 8 7 8 6 8 16 7 8 6 3 2 2 2 2 1 1 1 6 7 11 8 6 5 2 3 3 4 6 6 6 4 7 15
17 22 24 23 22 21 20 19 18 15 14 11 10 8 7 9 8 10 17 14 9 4 0 0 2 0 4 1 4 2 10 3 6 9 7 6 5 2 4 8 8 6 10 12 14
16 16 22 24 23 22 21 21 20 17 15 13 11 9 8 11 11 1 8 23 14 8 5 3 4 4 5 8 3 6 8 5 4 4 5 7 6 5 7 6 2 4 5 15 17
20 18 17 22 24 23 23 22 20 19 17 15 14 10 8 10 16 1 4 14 17 14 14 11 10 7 9 5 4 8 8 7 6 8 6 4 8 5 9 11 7 1 9 15 16
16 17 17 19 24 25 24 23 21 20 20 18 15 14 10 22 8 8 8 10 14 19 16 14 8 9 6 7 11 3 11 8 6 12 6 8 9 8 8 4 3 7 11 13 16
17 17 17 18 22 26 25 24 23 21 20 20 17 13 14 25 1 15 10 8 13 18 16 14 7 11 7 5 8 5 10 8 12 10 7 5 13 15 15 8 9 8 10 12 15
18 18 18 19 19 26 27 25 24 24 21 20 17 11 13 15 7 1 13 7 11 12 14 10 6 6 5 2 3 7 9 17 13 11 7 10 20 16 13 12 15 14 12 12 16
19 18 19 21 20 20 27 27 25 24 23 20 12 12 15 5 18 15 13 13 11 9 7 6 5 3 5 10 9 11 18 22 20 10 9 16 16 19 14 12 15 15 16 13 13
20 19 18 21 20 17 15 28 25 22 19 13 7 9 15 25 13 20 3 15 8 13 6 6 6 6 7 12 20 19 21 18 15 11 12 16 18 17 7 13 19 18 16 15 15
23 21 19 20 22 18 11 11 15 13 27 19 18 14 3 16 15 22 11 10 15 10 13 11 9 17 28 27 19 16 14 18 15 11 10 19 20 22 18 16 15 14 13 18 17
22 22 21 21 22 21 13 12 35 9 23 20 8 23 1 23 17 23 18 13 11 19 20 6 16 32 19 16 18 13 16 15 10 12 11 17 19 21 20 20 19 21 20 19 19
24 22 19 22 21 16 16 24 8 18 9 19 14 26 9 19 15 25 26 17 16 22 22 20 15 20 18 15 18 19 18 17 12 4 12 12 22 24 24 22 23 23 23 23 23
23 23 22 23 15 14 19 16 11 10 7 16 19 15 14 12 11 19 22 25 11 23 24 17 21 10 22 19 23 19 25 23 13 6 13 9 16 20 16 17 24 25 25 26 26
23 23 25 24 3 17 12 14 16 2 13 18 17 16 20 19 15 14 19 19 25 18 16 16 16 19 15 28 20 16 17 19 25 18 12 18 12 16 20 26 25 23 23 25 24
24 25 26 16 8 10 8 20 11 7 6 13 16 20 27 23 11 11 16 11 13 16 13 21 2 11 28 19 12 5 5 13 14 14 13 26 19 17 22 24 19 20 23 22 22
26 25 22 12 11 11 11 13 14 12 11 8 27 22 33 27 18 17 19 20 18 18 18 14 12 9 7 15 9 11 7 4 10 9 12 18 17 23 14 21 23 20 20 20 18
27 25 19 13 13 13 7 18 17 11 15 8 22 27 25 26 18 14 19 17 19 19 15 15 15 15 16 16 9 23 9 4 6 7 17 5 11 13 19 24 27 20 17 15 12
26 14 13 12 12 11 13 12 11 18 9 19 27 25 12 25 13 18 22 18 23 22 14 22 19 11 17 9 11 6 15 15 7 0 2 4 17 12 12 12 17 22 19 19 19
12 12 14 15 16 10 8 23 7 13 20 26 22 21 20 28 20 23 23 23 17 24 19 8 13 10 12 14 16 13 7 4 6 6 11 14 18 12 9 18 18 17 16 16 12
13 9 12 17 14 8 9 5 4 16 24 25 20 21 17 29 23 27 28 14 26 25 9 10 9 7 11 14 17 12 9 5 0 4 3 5 10 4 16 16 18 18 14 14 13
10 10 14 16 13 6 11 4 9 19 15 8 14 16 24 34 19 21 23 12 23 21 21 12 4 7 18 0 11 17 19 20 5 5 3 2 10 2 4 6 8 11 9 7 9
8 7 14 17 14 14 7 10 5 15 21 13 10 6 18 23 11 17 16 14 19 23 21 15 7 6 4 5 6 13 18 16 15 6 9 5 14 6 6 10 12 11 11 9 7
7 9 8 14 14 10 13 14 10 19 10 9 12 21 22 23 8 15 15 11 14 20 8 17 5 13 13 14 5 10 11 12 16 9 14 13 35 24 21 24 21 19 11 10 11
6 5 10 19 17 15 17 11 22 11 4 11 9 26 25 18 9 13 16 12 15 17 13 13 11 12 18 10 4 4 2 14 18 19 15 19 29 29 19 19 20 19 19 14 16
7 5 8 23 26 20 20 15 25 16 14 13 18 27 24 22 13 21 14 10 6 14 11 1 5 5 3 8 8 9 12 12 13 15 16 25 30 36 23 21 20 19 17 21 19
4 3 16 23 27 18 19 19 23 14 3 9 30 24 12 18 10 17 13 11 17 15 9 6 6 6 5 5 6 6 18 21 20 19 19 21 29 35 26 20 22 21 22 25 18
Wind_Direction
223 220 220 222 221 213 216 214 208 204 205 227 222 238 242 226 165 213 233 236 235 3 327 339 360 0 7 51 342 117 231 208 234 210 145 57 239 117 112 198 202 191 264 42 140
234 228 219 217 219 215 212 214 212 205 200 202 211 221 238 189 229 239 216 230 222 8 277 324 349 349 229 131 249 235 241 233 184 187 178 151 239 295 225 197 217 203 157 129 155
238 234 229 222 215 214 210 210 211 202 199 193 192 209 242 168 254 250 206 215 203 198 30 60 135 261 245 233 173 237 239 246 193 173 174 174 181 188 238 232 240 246 193 166 174
233 233 232 228 221 214 210 206 207 201 194 192 181 201 184 190 230 115 214 201 183 182 186 164 189 191 228 230 184 231 251 248 191 188 185 198 151 187 216 253 40 317 196 172 186
230 226 228 230 227 215 208 204 203 199 192 189 181 167 158 216 229 100 275 196 186 180 193 193 199 206 219 217 205 233 243 230 216 203 228 204 208 212 230 243 248 221 188 192 197
240 238 227 226 227 221 210 207 201 200 193 186 185 163 206 228 215 203 88 147 187 192 195 194 208 204 227 228 226 304 240 244 239 238 224 244 241 192 216 161 205 213 214 208 210
236 235 237 228 225 223 214 204 201 198 194 185 183 183 219 222 46 221 183 165 189 197 192 198 178 191 191 219 220 250 262 246 241 243 247 236 245 234 233 191 236 226 231 217 215
234 233 236 232 230 219 217 205 199 196 190 184 177 184 229 219 232 209 198 160 180 199 204 181 176 212 219 132 154 227 241 248 236 217 231 223 254 242 232 218 232 236 230 220 215
228 229 234 233 221 226 213 205 196 189 188 177 168 190 219 153 211 218 210 181 161 170 168 140 162 212 173 209 216 217 237 230 236 211 241 218 252 248 231 217 234 232 234 225 221
228 220 229 229 219 203 224 204 192 186 187 170 179 169 237 215 190 187 151 172 158 147 149 151 166 173 206 201 213 224 227 238 240 199 221 243 247 254 242 252 244 239 238 234 228
226 221 219 231 216 203 195 207 186 195 188 193 183 193 97 199 160 190 173 172 179 189 195 171 192 202 212 213 238 259 246 243 235 242 232 242 244 251 250 239 244 244 231 243 237
224 224 208 222 220 208 194 223 206 134 183 201 207 211 28 164 169 184 167 175 181 206 196 179 213 218 222 221 232 245 243 241 254 239 234 259 255 261 252 248 248 254 249 242 243
215 219 205 228 214 208 208 227 190 147 178 190 188 195 164 186 180 181 184 181 187 200 197 209 212 216 213 210 217 227 237 232 244 233 244 273 267 260 258 250 250 249 250 254 244
220 215 202 206 213 204 222 212 186 133 200 164 188 198 189 172 200 184 201 187 206 205 202 215 224 189 208 225 214 230 219 235 236 245 253 214 278 262 263 259 243 245 238 239 239
220 216 212 187 201 191 217 183 137 68 209 159 165 149 172 178 132 183 191 192 203 193 188 207 207 204 223 220 202 242 227 226 234 237 263 252 265 266 253 258 247 244 239 241 236
222 216 209 198 195 189 190 144 147 202 228 171 147 166 167 191 166 132 178 207 202 195 210 218 143 207 228 218 213 253 239 229 231 233 230 238 221 250 244 253 259 252 242 240 238
215 212 202 186 190 188 172 170 193 208 149 175 155 161 177 180 162 164 182 185 178 184 205 191 202 176 165 197 202 203 189 221 203 204 229 227 228 239 264 243 252 254 253 248 242
211 208 204 196 182 180 197 192 207 173 162 189 162 159 182 164 182 174 174 193 207 203 191 197 197 180 199 206 184 221 218 212 240 182 230 129 233 238 243 243 259 251 255 261 255
204 202 201 191 172 181 193 220 194 154 142 166 154 158 149 170 149 179 191 194 204 204 196 195 219 182 193 187 186 165 215 230 291 30 309 212 257 276 235 243 248 253 256 254 255
196 194 199 184 172 208 211 210 173 188 157 164 156 169 164 169 167 181 182 198 188 201 211 198 212 209 182 198 224 216 167 162 189 248 242 212 249 247 213 231 239 247 246 250 251
189 194 185 175 175 207 219 202 196 208 157 161 159 164 177 172 179 181 185 170 193 186 176 182 216 154 155 200 190 186 209 198 288 199 259 263 239 252 221 214 236 247 256 266 266
188 195 159 158 193 183 196 180 144 193 169 121 169 175 175 172 168 180 189 178 187 176 198 185 183 173 205 160 241 204 215 210 230 207 248 330 266 106 307 321 288 283 272 266 275
190 181 164 163 197 181 154 181 200 189 161 149 150 181 161 168 156 192 181 180 182 176 186 175 187 150 186 238 253 218 217 213 225 250 235 271 269 52 36 348 320 305 310 310 300
152 162 172 174 209 176 155 191 209 204 176 146 140 139 148 165 101 170 172 175 179 189 155 163 172 217 216 219 221 202 203 215 226 239 254 234 270 259 275 292 299 303 304 302 306
203 189 140 168 193 193 177 152 190 187 131 130 142 152 155 161 146 164 152 147 178 174 164 179 205 209 234 265 279 263 204 220 225 237 239 256 265 266 261 269 269 274 278 287 293
173 186 153 165 166 181 184 193 178 156 167 158 149 154 159 166 176 162 150 150 156 179 159 60 143 158 255 230 236 256 248 231 235 241 249 256 267 275 274 278 262 261 269 272 275
191 208 166 172 171 174 188 189 180 152 58 160 148 144 151 164 132 155 154 132 150 157 166 139 145 164 151 102 128 234 230 232 241 246 238 251 252 271 273 257 257 263 257 258 261